Weather in Pozhva

Russia / Perm Krai     59°04′29″N   56°06′30″E
temp.,
°C
wind,
m/s
gust,
m/s
humid.,
%
clouds,
%
prec.,
mm/h
press.,
hPa
HPBL,
m
18 september, sat
sat1823:00+4nnw3782100 0.2 1010282
02:00+3nnw4891100 0.0 1010353
05:00+1nw499398 0.0 1011356
08:00+4nnw5985100 0.1 1010872
11:00+5nnw698096 0.3 1011912
14:00+6nnw7106588 0.3 10111418
17:00+5nw71179100 0.6 10111148
20:00+3nw71397100 0.3 1012964
19 september, sun
sun1923:00+3nw61297100 1.0 10121065
02:00+2nnw6119696 0.4 1013966
05:00+2nw61285100 0.6 10141283
08:00+2nw61183100 0.1 10151258
11:00+4nw61177100 0.3 10161401
14:00+4nnw61169100 0.1 10181433
17:00+4nnw61066100 0.1 10191457
20:00+4nnw5966100 0.0 10201202
20 september, mon
mon2023:00+3nw4874100 0.0 1021893
02:00+3nw5977100 0.0 1022506
05:00+2nnw488185 0.0 1024584
08:00+1nnw478876 0.0 1026415
11:00+4n347394 0.0 1027836
14:00+4n3468100 0.0 10281049
17:00+5n2469100 0.1 1029816
20:00+4nne2578100 0.0 1030366
21 september, tue
tue2123:00+3nne2479100 0.0 1031220
02:00+4nne2376100 0.0 1031160
05:00+4nne226896 0.0 1031408
08:00+1n23836 0.0 1031120
11:00+5n22625 0.0 1030664
14:00+8n12536 0.0 1028825
17:00+8nne12554 0.0 1026692
20:00+5n127476 0.0 102680
22 september, wed
wed2223:00+3nne23875 0.0 102685
02:00+1n22890 0.0 102671
05:00+1nne23900 0.0 102584
08:00+1nne24885 0.0 1025136
11:00+6ne236864 0.0 1025425
14:00+10ene245810 0.0 1024792
17:00+10ne45615 0.0 1023975
20:00+6ne36845 0.0 1024137